Voltar ao catálogo

THOR ABLESTAR DEB

AtivoVLEO
NORAD 478·DEBRIS·🇺🇸 United States

Lançado Jun 29, 1961 de Cape Canaveral Space Force Station

Loading…

Próximas Passagens (próximas 24 horas)

TLE

AtualizadoSource: Space-Track

Época: Sep 14, 2026, 08:55 UTC

1 00478U 61015FQ  26257.37164343  .00009364  00000-0  78573-3 0  9990
2 00478  66.0549 258.8973 0036305 254.0043 105.7084 14.98272105397540

Acompanhe THOR ABLESTAR DEB em tempo real com AllMySat

Download on the App Store